Home > Weather > Harare > Past weeks

Flag for Zimbabwe Weather for the Past 2 Weeks in Harare, Zimbabwe

Now
81 °F

Sunny.


Feels Like: 80 °F
Forecast: 57 / 84 °F
Wind: 6 mph from North

Location: Harare Kutsaga Airport

Current Time: Feb 10, 2016 at 1:44:15 PM

Latest Report: Feb 10, 2016 at 1:00 PM


Visibility: 10 mi

Pressure: 30.12 "Hg (25.42 "Hg at 1490m altitude)

Humidity: 37%

Dew point: 52 °F

Location of HarareLocation

Historic Weather in Harare — Graph

°F

Harare Temperature Yesterday

Maximum temperature yesterday: 84 °F (at 4:00 PM)
Minimum temperature yesterday: 61 °F (at 4:00 AM)
Average temperature yesterday: 71 °F

High & Low Weather Summary for the Past Weeks

 TemperatureHumidityPressure
High91 °F (Feb 7, 1:00 PM)100% (Jan 26, 5:00 PM)30.24 "Hg (Jan 26, 5:00 PM)
Low57 °F (Jan 26, 5:00 PM)37% (Feb 3, 3:00 PM)30.01 "Hg (Feb 4, 5:00 PM)
Average71 °F76%30.14 "Hg
* Reported Jan 26 12:00 Noon — Feb 10 12:00 Noon, Harare, Weather by CustomWeather, © 2016

Note: Actual official high and low records may vary slightly from our data, if they occured in-between our weather recording intervals... More about our weather records

Advertising

Harare Weather History for the Previous 24 Hours

 ConditionsComfort  
Time TempWeatherWind HumidityBarometerVisibility
12:00 PM
Wed, Feb 10
81 °FSunny.6 mph45%30.15 "Hg10 mi
11:00 AM79 °FPassing clouds.6 mph45%30.18 "HgN/A
10:00 AM77 °FPassing clouds.2 mph54%30.18 "HgN/A
9:00 AM73 °FPassing clouds.5 mph69%30.18 "HgN/A
8:00 AM70 °FPassing clouds.6 mph73%30.18 "HgN/A
7:00 AM66 °FPassing clouds.5 mph83%30.18 "HgN/A
6:00 AM59 °FSunny.5 mph100%30.18 "Hg10 mi
5:00 AM61 °FPassing clouds.5 mph94%30.15 "HgN/A
4:00 AM59 °FClear.3 mph100%30.15 "Hg10 mi
3:00 AM61 °FClear.5 mph88%30.15 "Hg10 mi
2:00 AM63 °FClear.5 mph77%30.15 "Hg10 mi
1:00 AM64 °FClear.5 mph73%30.18 "Hg10 mi
12:00 AM66 °FClear.7 mph68%30.18 "Hg10 mi
9:00 PM
Tue, Feb 9
68 °FClear.8 mph64%30.15 "Hg10 mi
8:00 PM70 °FPassing clouds.8 mph57%30.12 "HgN/A
7:00 PM73 °FPassing clouds.6 mph50%30.09 "HgN/A
6:00 PM77 °FPassing clouds.5 mph47%30.07 "HgN/A
5:00 PM79 °FScattered clouds.5 mph45%30.07 "HgN/A
4:00 PM84 °FScattered clouds.5 mph37%30.07 "HgN/A
3:00 PM82 °FScattered clouds.7 mph40%30.09 "HgN/A
1:00 PM77 °FScattered clouds.5 mph47%30.15 "HgN/A
Weather by CustomWeather, © 2016

See weather overviewHow to use our weather pages